Showing default

HAWK-14B, 68436

Orbit data source: Space-Track

HAWK-14B, 68436 is a payload satellite owned by HawkEye 360 (US) in SSO that was launched on Mon, 30 Mar 2026 UTC via an FALCON 9 launch vehicle from the Air Force Western Test Range (AFWTR). Payload-class satellites include a variety of spacecraft equipped with specific instruments for various scientific and technological missions. These include communications satellites like Starlink; space stations such as the ISS; scientific satellites like the Hubble; Earth observation satellites from companies like Planet Labs, Umbra, and HawkEye 360; GPS; miniature CubeSats for education and research; and military/defense satellites.

Loading next visibility...
Identifier
68436, 2026-067W
Orbit
SSO
Country
Flag of USUS
Related business
Manufacturer
UTIAS-SFL
Mission
Operational spacecraft
Bus & Motor
HAWK2G, Unknown motor
Mass
31 kg wet, 30 kg dry
Launch date (UTC)
2026-03-30 (3 months ago)
Launch vehicle
FALCON 9
Launch site
Air Force Western Test Range (AFWTR)
Object type
Payload
Rocket body
Debris
Shape & HBR
Unknown shape, 0.6 m
Radar Cross Section
Medium (>0.1 m² and <1 m²)

Expand to show TLE details & history
Last TLE update: 2 days ago

TLE from 2 days ago
0 HAWK-14B
1 68436U 26067W   26171.44481791  .00003395  00000-0  16909-3 0  9991
2 68436  97.4551 129.8466 0003994  58.6780 301.4845 15.18243379 12433
Epoch: 2026-06-20T10:40Z
TLE epoch observation values (Epoch: 2026-06-20T10:40:32.267Z)
Latitude
0.00002°
Longitude
61.05281°
Altitude
512.799 km
Speed
7.608 km/s
True Right ascension
08h 39m 23s
True Declination
0° 00' 00"
Sunlit
Object was in daylight at epoch
Visualization orbit readout
Latitude
Unknown
Longitude
Unknown
Altitude
Unknown
Speed
Unknown
Apparent Right ascension
Unknown
Apparent Declination
Unknown
Sunlit
N/A
Visualization observer readout
Local Sidereal Time
19:56:55
Azimuth
Unknown
Elevation
Unknown
Doppler factor
Unknown
Orbital elements
Apogee altitude
510.87 km
Perigee altitude
505.369 km
Semi-major axis
6,886.257 km
Eccentricity
0.0004
Inclination
97.4551°
RAAN
129.8466°
Arg. of periapsis
58.678°
True anomaly
301.44546°
Mean anomaly
301.4845°
Eccentric anomaly
301.46498°
Mean motion
3.79812 °/min
Orbital period
94.78 mins
BSTAR
0.00016909
Loading maneuver chart data...
Computing Atmospheric mass density...
Loading historical data...
Loading historical data...
Loading historical data...
Loading historical data...
Loading historical data...
Loading historical data...
Loading historical data...

Documentation

Showing up to 5 results
|